C/2019 L2 ( NEOWISE )

Japanese version
Home page
Updated on December 26, 2019

---------------------------------------------------------------------

* Profile

Discovery Date June 11, 2019
Magnitude 18 mag
Discoverer Near-Earth Object Wide-field Infrared Survey Explorer

* Pictures

* Orbital Elements

Epoch 2019 Mar. 18.0 TT = JDT 2458560.5
T 2019 Apr. 1.93527 TT                                  Williams
q   1.6203546            (2000.0)            P               Q
n   0.00790697     Peri.   18.71660     +0.98613267     -0.13153648
a  24.9533758      Node    12.52757     -0.12526841     -0.98992449
e   0.9350647      Incl.  152.19049     +0.10885859     +0.05241809
P 125
From 114 observations 2019 June 11-30, mean residual 0".7.

* Magnitudes Graph

        m1 = 15.0 + 5 log d + 10.0 log r

---------------------------------------------------------------------

The orbital elements are published on M.P.E.C. 2019-Q135.
The magnitudes graphs are made with Comet for Windows.

---------------------------------------------------------------------

Copyright(C) Seiichi Yoshida (comet@aerith.net). All rights reserved.